[[{"header":{"parameterUnit":"m.s-1","parameterCategory":2,"la1":30.2991,"la2":30.254,"lo1":-89.0895,"lo2":-89.0444,"dy":0.0017,"dx":0.0017,"nx":28,"ny":28,"refTime":"2023-10-05T21:00:00:Z","depth":"0","parameterNumber":2,"parameterNumberName":"U-component_of_CURRENTS"},"data":[0,0,0,0,0,0,0,0,0,0,0,0,0,0,0,0,0,0,0,0,0,0,0,0,0,0,0,0,0,0,0,0,0,0,0,0,0,0,0,0,0,0,0,0,0,0,0,0,0,0,0,0,0,0,0,0,0,0,0.1926,0.1926,0,0.1905,0.1905,0.1905,0.1883,0.1883,0.1883,0.1883,0.1839,0.1838,0.1837,0,0,0,0,0,0,0,0,0,0,0,0,0,0.1962,0.1961,0.1926,0.1926,0.1926,0.1905,0.1905,0.1904,0.1883,0.1883,0.1883,0.1883,0.1839,0.1838,0.1837,0,0,0,0,0,0,0,0,0,0,0,0,0,0.1942,0.1961,0.1926,0.1915,0.1914,0.1906,0.1905,0.1904,0.1883,0.1883,0.1883,0.1883,0.184,0.1838,0.1837,0.1828,0,0,0.1832,0.1831,0,0,0,0,0,0,0,0,0.1943,0.194,0.1916,0.1916,0.1914,0.1899,0.1902,0.1878,0.1883,0.1892,0.1883,0.1883,0.1859,0.1855,0.1849,0.1826,0.1824,0.1831,0.183,0.183,0.1829,0,0,0,0,0,0,0,0.1944,0.1941,0.1915,0.1916,0.1915,0.1916,0.1913,0.1897,0.1874,0.1892,0.1891,0.1892,0.1858,0.185,0.1847,0.1823,0.1831,0.183,0.1829,0.1828,0.1818,0.1819,0,0,0,0,0,0,0.1951,0.1942,0.1916,0.1915,0.1932,0.1916,0.1912,0.1902,0.1874,0.1871,0.1892,0.1891,0.1853,0.1849,0.1846,0.1849,0.183,0.1828,0.1827,0.1817,0.1818,0.1819,0,0,0,0,0,0,0.1952,0.1948,0.1917,0.1931,0.1927,0.1915,0.1904,0.1902,0.1898,0.1876,0.1872,0.1892,0.1853,0.1848,0.1841,0.1846,0.1827,0.1826,0.1817,0.1818,0.1819,0.1845,0,0,0,0,0,0,0.1953,0.1948,0.1944,0.1931,0.1927,0.1915,0.1905,0.1901,0.19,0.1899,0.1874,0.187,0.1852,0.1844,0.184,0.1844,0.1824,0.1816,0.1817,0.1818,0.1844,0.1847,0.185,0,0,0,0,0,0.1954,0.194,0.1943,0.1941,0.192,0.1915,0.1913,0.1903,0.19,0.1899,0.1889,0.1871,0.185,0.1843,0.1838,0.1842,0.1815,0.1817,0.1818,0.1842,0.1847,0.185,0,0,0,0,0,0,0.1937,0.1936,0.194,0.1922,0.1925,0.1912,0.1907,0.1907,0.1897,0.1896,0.1876,0.1871,0.1869,0.1855,0.1848,0.1845,0.1831,0.1832,0.1851,0.1855,0.1858,0.1842,0.1823,0,0,0,0,0,0.1938,0.1935,0.1934,0.1922,0.1924,0.192,0.1918,0.1915,0.1907,0.1902,0.1889,0.1878,0.1872,0.1863,0.1854,0.1847,0.1848,0.1849,0.1852,0.1855,0.184,0.1868,0.1873,0.1825,0.1825,0.1825,0,0,0.1925,0.1928,0.1923,0.1921,0.1919,0.1913,0.1917,0.1915,0.1908,0.1899,0.1885,0.1889,0.1875,0.1871,0.1869,0.1858,0.1872,0.1857,0.186,0.1842,0.1871,0.1875,0.1879,0.1826,0.1826,0.1825,0,0,0.1904,0.1905,0.19,0.1904,0.1914,0.1911,0.1915,0.1913,0.1911,0.191,0.1904,0.1911,0.1896,0.1888,0.1882,0.1898,0.1893,0.1902,0.1898,0.1927,0.1931,0.1934,0.195,0.1954,0.1899,0.1899,0.1899,0,0.1891,0.1884,0.1898,0.1896,0.1897,0.1911,0.1904,0.1902,0.1899,0.1902,0.1909,0.1909,0.1901,0.1895,0.1902,0.1903,0.1918,0.1883,0.1931,0.1934,0.1937,0.1952,0.1957,0.1901,0.1901,0.19,0.19,0,0.1872,0.1867,0.1864,0.1869,0.1872,0.187,0.1876,0.1881,0.1892,0.1896,0.1909,0.1911,0.1909,0.1918,0.1911,0.1927,0.1931,0.1938,0.1919,0.1944,0.1958,0.1963,0.1903,0.1902,0.1902,0.1902,0,0,0.1835,0.1849,0.1848,0.1843,0.1861,0.1852,0.1858,0.1864,0.186,0.1882,0.1884,0.1895,0.191,0.1903,0.1908,0.193,0.1971,0.1941,0.1942,0.1953,0.2033,0.1993,0.1994,0.1996,0.1997,0.1998,0.2038,0,0.1817,0.1805,0.1825,0.1806,0.1794,0.1821,0.1818,0.1828,0.1847,0.1852,0.188,0.1884,0.1899,0.1906,0.1932,0.196,0.1983,0.1959,0.2009,0.201,0.1969,0.1998,0.1905,0.1929,0.2042,0.2043,0.2043,0,0.1793,0.1787,0.1771,0.1768,0.1767,0.1763,0.1769,0.1771,0.1796,0.1816,0.1844,0.1864,0.1891,0.1907,0.1969,0.1958,0.199,0.2018,0.2021,0.197,0.1977,0.1921,0.1932,0.1886,0.205,0.2049,0.2049,0,0.1752,0.1746,0.1732,0.1731,0.1732,0.1735,0.174,0.1761,0.1766,0.1796,0.1816,0.185,0.1878,0.1928,0.1984,0.1984,0.2056,0.2064,0.2057,0.2054,0.1974,0.1962,0.1936,0.2106,0.2106,0.2106,0.2106,0,0.1724,0.1705,0.1707,0.1695,0.1669,0.1692,0.1681,0.1698,0.1729,0.174,0.1791,0.1814,0.1891,0.1941,0.1984,0.2031,0.2061,0.2051,0.2062,0.1981,0.197,0.1924,0.1905,0.2108,0.2107,0.2107,0.2107,0,0.1681,0.1689,0.1658,0.1653,0.1649,0.1629,0.1644,0.164,0.1684,0.1707,0.1723,0.1798,0.1865,0.193,0.2012,0.203,0.2007,0.2085,0.1976,0.1972,0.1903,0.1889,0.1771,0.1705,0.2075,0.2074,0.2073,0,0.166,0.164,0.1616,0.1595,0.1594,0.1576,0.157,0.1608,0.162,0.1697,0.1709,0.1785,0.1829,0.1925,0.1965,0.202,0.1972,0.1966,0.194,0.1877,0.1872,0.1783,0.173,0.1853,0.185,0.1848,0.1847,0,0.1602,0.1596,0.157,0.1534,0.1517,0.1499,0.1504,0.151,0.1571,0.1599,0.1656,0.17,0.1796,0.1815,0.1886,0.1907,0.1837,0.1926,0.1894,0.1713,0.1581,0.153,0.1846,0.1829,0.1831,0.1832,0.1833,0.1834,0.155,0.1517,0.1489,0.1449,0.1435,0.1425,0.1395,0.1428,0.144,0.1483,0.1571,0.1611,0.1687,0.1767,0.1773,0.1725,0.1721,0.1685,0.1682,0.1603,0.15,0.1768,0.1744,0.1745,0.1746,0.1747,0.1748,0,0.1459,0.1435,0.1404,0.1354,0.1324,0.1346,0.1344,0.1319,0.1315,0.1393,0.1432,0.1497,0.1512,0.1564,0.1569,0.1508,0.1415,0.1456,0.1317,0.1285,0.1559,0.1511,0.1395,0.1395,0.1395,0.1395,0.1395,0.1395,0.1406,0.1342,0.133,0.1251,0.123,0.1175,0.1163,0.1157,0.1188,0.1214,0.1251,0.1315,0.1414,0.1432,0.1375,0.1333,0.1206,0.1119,0.1128,0.1346,0.1367,0.1387,0.1338,0.1187,0.1187,0.077,0.0767,0.0765]},{"header":{"parameterUnit":"m.s-1","parameterCategory":2,"la1":30.2991,"la2":30.254,"lo1":-89.0895,"lo2":-89.0444,"dy":0.0017,"dx":0.0017,"nx":28,"ny":28,"refTime":"2023-10-05T21:00:00:Z","depth":"0","parameterNumber":3,"parameterNumberName":"V-component_of_CURRENTS"},"data":[0,0,0,0,0,0,0,0,0,0,0,0,0,0,0,0,0,0,0,0,0,0,0,0,0,0,0,0,0,0,0,0,0,0,0,0,0,0,0,0,0,0,0,0,0,0,0,0,0,0,0,0,0,0,0,0,0,0,0.0078,0.0077,0,0.0043,0.0043,0.0042,0.0023,0.0023,0.0023,0.0023,-0.0042,-0.0044,-0.0046,0,0,0,0,0,0,0,0,0,0,0,0,0,0.0094,0.0094,0.0078,0.0077,0.0077,0.0043,0.0043,0.0042,0.0023,0.0023,0.0023,0.0023,-0.0042,-0.0044,-0.0046,0,0,0,0,0,0,0,0,0,0,0,0,0,0.0075,0.0094,0.0078,0.0064,0.0063,0.0043,0.0043,0.0042,0.0023,0.0023,0.0023,0.0023,-0.0041,-0.0044,-0.0046,-0.0063,0,0,-0.0054,-0.0055,0,0,0,0,0,0,0,0,0.0076,0.0074,0.0067,0.0065,0.0063,0.0038,0.0024,0.0005,0.0023,0.0037,0.0023,0.0023,-0.0018,-0.0022,-0.003,-0.0067,-0.0069,-0.0055,-0.0056,-0.0057,-0.0058,0,0,0,0,0,0,0,0.0078,0.0076,0.0063,0.0066,0.0064,0.0048,0.0046,0.002,0.0009,0.0036,0.0035,0.0032,-0.0019,-0.0027,-0.0031,-0.007,-0.0054,-0.0057,-0.0059,-0.006,-0.0137,-0.0137,0,0,0,0,0,0,0.0085,0.0077,0.0064,0.0062,0.0071,0.0048,0.0045,0.0046,0.001,0.0005,0.0032,0.0032,-0.0022,-0.0028,-0.0034,-0.0048,-0.0057,-0.006,-0.0061,-0.0137,-0.0137,-0.0138,0,0,0,0,0,0,0.0086,0.0085,0.0066,0.0069,0.0066,0.0048,0.0048,0.0045,0.0039,0.0007,0.0002,0.003,-0.0023,-0.003,-0.0054,-0.0051,-0.0061,-0.0063,-0.0136,-0.0137,-0.0137,-0.0082,0,0,0,0,0,0,0.0086,0.0085,0.0087,0.007,0.0066,0.006,0.0048,0.0044,0.0037,0.0036,0.0003,-0.0003,-0.0023,-0.005,-0.0057,-0.0055,-0.0066,-0.0135,-0.0136,-0.0137,-0.0084,-0.0081,-0.0079,0,0,0,0,0,0.0087,0.0094,0.0087,0.0085,0.0069,0.006,0.0057,0.0043,0.0037,0.0037,0.0014,-0.0002,-0.006,-0.0052,-0.006,-0.0059,-0.0135,-0.0136,-0.0137,-0.0085,-0.0081,-0.0079,0,0,0,0,0,0,0.0103,0.0092,0.0084,0.0088,0.0076,0.0057,0.0058,0.0046,0.0027,0.0027,-0.0005,-0.0013,-0.0033,-0.0058,-0.0048,-0.0087,-0.0102,-0.0104,-0.0059,-0.0057,-0.0054,-0.0029,-0.0068,0,0,0,0,0,0.0107,0.0111,0.0094,0.0098,0.0094,0.0075,0.0069,0.006,0.0042,0.0035,0.0011,-0.0018,-0.0045,-0.0059,-0.0085,-0.0105,-0.0115,-0.0112,-0.011,-0.0108,-0.0095,-0.0112,-0.0109,-0.0141,-0.0141,-0.0141,0,0,0.0118,0.011,0.0114,0.0101,0.0093,0.0094,0.0072,0.0069,0.0069,0.003,0.0022,-0.0009,-0.0049,-0.0068,-0.008,-0.0087,-0.0104,-0.0109,-0.0106,-0.0095,-0.0112,-0.0109,-0.0106,-0.0142,-0.0142,-0.0141,0,0,0.0143,0.0132,0.0143,0.0135,0.0123,0.0111,0.0112,0.0093,0.0084,0.0069,0.004,0.0015,-0.0026,-0.005,-0.0068,-0.0072,-0.009,-0.0088,-0.0055,-0.0072,-0.0068,-0.0066,-0.0068,-0.0066,-0.0088,-0.0088,-0.0088,0,0.0157,0.0163,0.0145,0.0151,0.0148,0.0122,0.0131,0.0119,0.0095,0.0088,0.0074,0.0019,-0.0014,-0.0037,-0.0038,-0.0063,-0.0072,-0.0058,-0.0066,-0.0063,-0.0061,-0.0065,-0.0063,-0.0085,-0.0086,-0.0086,-0.0086,0,0.0188,0.019,0.0196,0.0195,0.019,0.0193,0.0174,0.0167,0.015,0.0134,0.011,0.0066,0.0035,0.0013,-0.0012,-0.0022,-0.0031,-0.0057,-0.0064,-0.0054,-0.0059,-0.0058,-0.0082,-0.0083,-0.0083,-0.0084,0,0,0.0228,0.022,0.0222,0.0224,0.0211,0.021,0.0213,0.0203,0.0206,0.0176,0.0177,0.0125,0.0102,0.0079,0.0038,0.0021,0.0024,-0.0007,-0.0009,0.0006,0.0001,0.0004,0.0005,-0.0001,-0.0001,-0.0001,-0.0004,0,0.0257,0.0273,0.0262,0.0277,0.0281,0.026,0.0264,0.0253,0.0236,0.023,0.0186,0.0167,0.0125,0.0109,0.0089,0.004,0.0028,0.0029,-0.0025,-0.0026,-0.0012,0.0006,0.0037,0.0037,-0.0004,-0.0004,-0.0004,0,0.0288,0.0291,0.0311,0.0309,0.0311,0.0319,0.0317,0.0318,0.0302,0.029,0.0268,0.0233,0.0205,0.0165,0.0109,0.0112,0.0067,0.0029,0.0028,0.0015,-0.0021,0.0016,0.004,-0.0009,-0.0003,-0.0003,-0.0003,0,0.0315,0.0325,0.0339,0.0339,0.0337,0.0345,0.0346,0.0337,0.0343,0.0329,0.0336,0.0291,0.0276,0.0216,0.0142,0.0125,0.0087,0.0048,0.0011,0.0011,0.002,0.002,0.0004,0.0014,0.0014,0.0014,0.0014,0,0.0342,0.0352,0.0353,0.036,0.0379,0.0372,0.0394,0.0388,0.0395,0.0416,0.0371,0.0381,0.0288,0.0251,0.0174,0.0109,0.0111,0.0032,0.0013,0.0039,0.0041,-0.0017,-0.0055,0.0014,0.0014,0.0014,0.0014,0,0.0362,0.0364,0.0377,0.0384,0.0391,0.0403,0.0426,0.0444,0.0448,0.048,0.048,0.0454,0.0412,0.0322,0.023,0.0159,0.0058,0.0057,0.0103,0.0089,0.0003,-0.0033,-0.0082,-0.0109,0.002,0.002,0.002,0,0.0371,0.038,0.0393,0.0405,0.0409,0.0431,0.0452,0.0466,0.0495,0.0529,0.0553,0.0526,0.0521,0.0401,0.0273,0.0157,0.0076,0.0093,0.0059,0.0019,-0.0036,-0.0076,-0.0098,0.0092,0.0093,0.0094,0.0094,0,0.0382,0.0386,0.0395,0.0422,0.0446,0.0476,0.0513,0.0548,0.0581,0.0621,0.0669,0.067,0.0574,0.048,0.0321,0.0228,0.0067,0.01,0.0044,0.0016,-0.0013,-0.0054,0.008,0.0099,0.0098,0.0098,0.0098,0.0098,0.0387,0.0392,0.0409,0.0434,0.0469,0.0521,0.0555,0.0611,0.0675,0.0742,0.0753,0.0781,0.0654,0.0449,0.0319,0.0123,0.0096,0.0058,0.0018,-0.0018,-0.0044,0.011,0.0112,0.0111,0.0111,0.0111,0.011,0,0.0388,0.0398,0.0421,0.0457,0.05,0.052,0.0595,0.0638,0.0722,0.0799,0.0846,0.083,0.0669,0.0479,0.0226,0.0077,-0.0,-0.0008,-0.0053,-0.0073,0.006,0.0064,0.0074,0.0074,0.0074,0.0074,0.0074,0.0074,0.039,0.0403,0.0415,0.0476,0.051,0.057,0.0615,0.0688,0.0755,0.0849,0.0896,0.0924,0.0832,0.0376,0.0077,-0.0004,-0.0122,-0.0141,-0.0212,-0.0114,-0.0111,-0.0109,-0.0113,-0.0141,-0.0141,-0.0317,-0.0319,-0.032]}],[{"header":{"parameterUnit":"m.s-1","parameterCategory":2,"la1":30.2991,"la2":30.254,"lo1":-89.0895,"lo2":-89.0444,"dy":0.0017,"dx":0.0017,"nx":28,"ny":28,"refTime":"2023-10-05T21:00:00:Z","depth":"2","parameterNumber":2,"parameterNumberName":"U-component_of_CURRENTS"},"data":[0,0,0,0,0,0,0,0,0,0,0,0,0,0,0,0,0,0,0,0,0,0,0,0,0,0,0,0,0,0,0,0,0,0,0,0,0,0,0,0,0,0,0,0,0,0,0,0,0,0,0,0,0,0,0,0,0,0,0.171,0.171,0,0.1698,0.1697,0.1697,0.1711,0.1712,0.1713,0.1714,0.1785,0.1785,0.1786,0,0,0,0,0,0,0,0,0,0,0,0,0,0.1666,0.1667,0.1709,0.171,0.171,0.1698,0.1697,0.1696,0.171,0.1712,0.1713,0.1714,0.1784,0.1785,0.1786,0,0,0,0,0,0,0,0,0,0,0,0,0,0.1667,0.1667,0.1709,0.172,0.1721,0.1698,0.1697,0.1696,0.171,0.1712,0.1713,0.1715,0.1784,0.1785,0.1787,0.1763,0,0,0.1791,0.1791,0,0,0,0,0,0,0,0,0.1667,0.1668,0.1718,0.1719,0.1721,0.1713,0.1708,0.1725,0.171,0.1708,0.1714,0.1716,0.1771,0.1773,0.1758,0.1766,0.1769,0.1791,0.1791,0.1792,0.1792,0,0,0,0,0,0,0,0.1667,0.1668,0.1699,0.1719,0.172,0.17,0.1701,0.171,0.1727,0.1708,0.1711,0.1719,0.1772,0.1756,0.176,0.177,0.1791,0.1792,0.1793,0.1793,0.1861,0.1862,0,0,0,0,0,0,0.1683,0.1669,0.1699,0.1699,0.1704,0.17,0.1702,0.1709,0.1726,0.1731,0.1717,0.1719,0.1753,0.1758,0.1763,0.1822,0.1792,0.1793,0.1794,0.186,0.1862,0.1863,0,0,0,0,0,0,0.1682,0.1686,0.17,0.1688,0.169,0.17,0.1707,0.1708,0.172,0.1733,0.1739,0.1733,0.1755,0.1761,0.1801,0.1822,0.1794,0.1795,0.1859,0.1861,0.1862,0.1885,0,0,0,0,0,0,0.1681,0.1685,0.17,0.1689,0.1691,0.1705,0.1706,0.1707,0.1723,0.1726,0.1747,0.1754,0.1756,0.1799,0.1802,0.1823,0.1796,0.1858,0.186,0.1862,0.1883,0.1887,0.1891,0,0,0,0,0,0.1679,0.1694,0.17,0.1705,0.1709,0.1706,0.1704,0.1712,0.1723,0.1728,0.1752,0.1755,0.1814,0.1801,0.1804,0.1826,0.1857,0.1859,0.1861,0.1881,0.1886,0.1891,0,0,0,0,0,0,0.1682,0.1697,0.1704,0.1723,0.1725,0.1711,0.1717,0.1723,0.1739,0.1753,0.1765,0.1772,0.1813,0.1818,0.1803,0.1852,0.1836,0.184,0.185,0.1855,0.1859,0.1838,0.1797,0,0,0,0,0,0.169,0.1703,0.1711,0.1723,0.1728,0.1725,0.1728,0.1735,0.1746,0.1755,0.1776,0.1799,0.1817,0.1838,0.185,0.1877,0.1877,0.1895,0.1899,0.1902,0.1889,0.1918,0.1923,0.187,0.187,0.187,0,0,0.169,0.1703,0.1708,0.1725,0.1723,0.1728,0.1729,0.1741,0.1753,0.1761,0.1796,0.1813,0.1826,0.1856,0.1875,0.187,0.1919,0.1905,0.1908,0.1892,0.192,0.1925,0.193,0.1872,0.1871,0.1871,0,0,0.1684,0.1712,0.1714,0.1723,0.1739,0.1742,0.1754,0.1762,0.1777,0.1809,0.1818,0.1848,0.1884,0.1889,0.1897,0.193,0.1935,0.1947,0.1954,0.1983,0.1987,0.1991,0.2001,0.2005,0.1953,0.1953,0.1953,0,0.1686,0.17,0.1713,0.1721,0.1736,0.1754,0.1762,0.1771,0.1797,0.181,0.1833,0.1874,0.1893,0.191,0.1926,0.1937,0.1951,0.1935,0.1987,0.1991,0.1994,0.2003,0.2007,0.1955,0.1955,0.1954,0.1954,0,0.1676,0.1699,0.1703,0.1724,0.1736,0.1752,0.1773,0.1795,0.1829,0.184,0.1879,0.1902,0.1922,0.1942,0.1946,0.1976,0.1978,0.1985,0.1972,0.2,0.2009,0.2013,0.1957,0.1956,0.1956,0.1955,0,0,0.1657,0.1691,0.1694,0.1706,0.1749,0.1749,0.1783,0.1807,0.1817,0.1865,0.1881,0.1922,0.1934,0.1942,0.1955,0.1985,0.2027,0.2,0.2001,0.2003,0.2086,0.203,0.2029,0.2054,0.2055,0.2056,0.2083,0,0.1651,0.1664,0.1689,0.1708,0.172,0.1757,0.1775,0.1801,0.1836,0.1858,0.1891,0.1913,0.1934,0.1947,0.1981,0.201,0.2039,0.2018,0.2063,0.2063,0.2005,0.2032,0.1869,0.1875,0.2087,0.2088,0.2088,0,0.1634,0.1654,0.1669,0.1702,0.1709,0.1724,0.1757,0.1777,0.1812,0.1838,0.1871,0.1894,0.1931,0.1952,0.2017,0.2009,0.2046,0.2074,0.2076,0.2013,0.2015,0.1881,0.1874,0.2095,0.2094,0.2094,0.2093,0,0.1606,0.1638,0.1653,0.1668,0.1706,0.1719,0.174,0.1772,0.1784,0.1823,0.1843,0.1884,0.1915,0.1968,0.2029,0.2033,0.2101,0.2111,0.2091,0.2087,0.1947,0.1929,0.2158,0.2158,0.2158,0.2158,0.2158,0,0.1597,0.1609,0.164,0.1652,0.1657,0.1693,0.17,0.1725,0.1758,0.1773,0.1826,0.1847,0.1928,0.1978,0.2025,0.2064,0.2101,0.2085,0.2092,0.1951,0.1934,0.2121,0.2117,0.2159,0.2159,0.2159,0.2158,0,0.1566,0.1591,0.1604,0.164,0.1645,0.1646,0.1672,0.1675,0.172,0.1744,0.176,0.1833,0.1894,0.1959,0.2042,0.2055,0.2097,0.2104,0.1923,0.1908,0.2063,0.206,0.2074,0.2073,0.2071,0.207,0.2069,0,0.1547,0.1554,0.158,0.1575,0.1594,0.1601,0.1603,0.1646,0.1659,0.1732,0.1744,0.1815,0.1851,0.1933,0.1961,0.2006,0.2072,0.1881,0.1852,0.2049,0.2055,0.2054,0.2053,0.1679,0.1675,0.1672,0.1669,0,0.1519,0.1531,0.1543,0.1531,0.1532,0.1528,0.1546,0.1551,0.1612,0.1636,0.1686,0.1722,0.1797,0.176,0.1814,0.1825,0.1854,0.1813,0.2071,0.1726,0.1679,0.1684,0.1695,0.1639,0.1642,0.1644,0.1646,0.1647,0.1493,0.148,0.1488,0.147,0.1468,0.146,0.1439,0.1471,0.148,0.1512,0.1589,0.1591,0.1624,0.1616,0.1586,0.1569,0.1711,0.1645,0.1655,0.1668,0.1618,0.1571,0.15,0.1502,0.1504,0.1505,0.1507,0,0.1438,0.1431,0.142,0.1396,0.137,0.1393,0.1393,0.1367,0.1358,0.1406,0.1428,0.1333,0.1304,0.1338,0.127,0.1289,0.1272,0.1233,0.1194,0.1225,0.1253,0.118,0.0947,0.0945,0.0944,0.0942,0,0,0.1414,0.1377,0.1365,0.1302,0.1287,0.1236,0.1224,0.1208,0.1217,0.1193,0.1174,0.1256,0.1304,0.1108,0.1089,0.1002,0.1103,0.0961,0.1413,0.1398,0.1424,0.1497,0.1421,0,0,0,0,0]},{"header":{"parameterUnit":"m.s-1","parameterCategory":2,"la1":30.2991,"la2":30.254,"lo1":-89.0895,"lo2":-89.0444,"dy":0.0017,"dx":0.0017,"nx":28,"ny":28,"refTime":"2023-10-05T21:00:00:Z","depth":"2","parameterNumber":3,"parameterNumberName":"V-component_of_CURRENTS"},"data":[0,0,0,0,0,0,0,0,0,0,0,0,0,0,0,0,0,0,0,0,0,0,0,0,0,0,0,0,0,0,0,0,0,0,0,0,0,0,0,0,0,0,0,0,0,0,0,0,0,0,0,0,0,0,0,0,0,0,-0.0042,-0.0043,0,-0.0078,-0.0079,-0.0079,-0.0118,-0.0119,-0.012,-0.012,-0.0215,-0.0216,-0.0218,0,0,0,0,0,0,0,0,0,0,0,0,0,0.0018,0.0017,-0.0042,-0.0043,-0.0043,-0.0078,-0.0079,-0.0079,-0.0118,-0.0119,-0.012,-0.0121,-0.0214,-0.0216,-0.0218,0,0,0,0,0,0,0,0,0,0,0,0,0,-0.001,0.0017,-0.0042,-0.0068,-0.0071,-0.0078,-0.0079,-0.0079,-0.0118,-0.0119,-0.012,-0.0121,-0.0213,-0.0216,-0.0219,-0.0214,0,0,-0.0227,-0.0228,0,0,0,0,0,0,0,0,-0.0009,-0.0012,-0.0064,-0.0066,-0.007,-0.0096,-0.0092,-0.0128,-0.0118,-0.0098,-0.012,-0.0122,-0.0181,-0.0186,-0.0187,-0.0218,-0.0223,-0.0227,-0.0229,-0.023,-0.0231,0,0,0,0,0,0,0,-0.0007,-0.0011,-0.0055,-0.0064,-0.0068,-0.007,-0.0075,-0.0099,-0.0133,-0.01,-0.0104,-0.011,-0.0183,-0.0185,-0.019,-0.0224,-0.0227,-0.023,-0.0231,-0.0233,-0.028,-0.028,0,0,0,0,0,0,-0.0006,-0.0009,-0.0054,-0.0056,-0.0043,-0.007,-0.0076,-0.0085,-0.0131,-0.014,-0.0109,-0.0112,-0.0179,-0.0187,-0.0194,-0.0204,-0.023,-0.0233,-0.0234,-0.0281,-0.028,-0.028,0,0,0,0,0,0,-0.0005,-0.001,-0.0052,-0.0035,-0.004,-0.0071,-0.008,-0.0086,-0.0094,-0.0138,-0.0147,-0.0113,-0.018,-0.019,-0.0214,-0.0208,-0.0234,-0.0237,-0.0281,-0.0281,-0.028,-0.0217,0,0,0,0,0,0,-0.0003,-0.0009,-0.0015,-0.0035,-0.0041,-0.0057,-0.008,-0.0086,-0.0097,-0.0101,-0.0144,-0.0154,-0.0182,-0.021,-0.0217,-0.0212,-0.0239,-0.0282,-0.0281,-0.028,-0.0219,-0.0214,-0.0209,0,0,0,0,0,-0.0,-0.0006,-0.0015,-0.002,-0.0049,-0.0057,-0.006,-0.0084,-0.0096,-0.0096,-0.0124,-0.0153,-0.0211,-0.0212,-0.022,-0.0216,-0.0282,-0.0281,-0.028,-0.0221,-0.0215,-0.0209,0,0,0,0,0,0,0.0016,-0.0011,-0.0021,-0.0035,-0.0045,-0.0064,-0.0067,-0.008,-0.01,-0.0106,-0.0146,-0.0157,-0.0176,-0.0204,-0.0203,-0.0228,-0.0252,-0.0252,-0.0204,-0.0198,-0.0193,-0.0175,-0.0241,0,0,0,0,0,0.0018,0.0007,-0.0013,-0.0022,-0.0025,-0.0043,-0.005,-0.0064,-0.0084,-0.0094,-0.0124,-0.0155,-0.0177,-0.0194,-0.0219,-0.0231,-0.0247,-0.0234,-0.0229,-0.0225,-0.0215,-0.0234,-0.023,-0.0277,-0.0277,-0.0277,0,0,0.0022,0.0007,-0.0001,-0.0019,-0.0027,-0.0024,-0.0049,-0.0056,-0.0053,-0.0101,-0.011,-0.014,-0.0176,-0.0188,-0.02,-0.0213,-0.0218,-0.0224,-0.022,-0.0213,-0.0233,-0.0228,-0.0224,-0.0277,-0.0277,-0.0277,0,0,0.0034,0.0014,0.0014,0.0009,-0.0003,-0.0011,-0.0012,-0.003,-0.0038,-0.0047,-0.008,-0.0102,-0.0138,-0.0159,-0.0174,-0.0158,-0.019,-0.0171,-0.0133,-0.0151,-0.0147,-0.0144,-0.0146,-0.0144,-0.017,-0.0169,-0.0169,0,0.004,0.0038,0.0015,0.0021,0.0022,-0.0003,0.001,0.0002,-0.0023,-0.0024,-0.0045,-0.0086,-0.012,-0.013,-0.0124,-0.0146,-0.0157,-0.015,-0.0143,-0.0141,-0.0138,-0.0142,-0.014,-0.0166,-0.0167,-0.0167,-0.0167,0,0.0057,0.0058,0.0062,0.0061,0.0059,0.0066,0.0053,0.005,0.0037,0.0025,0.0012,-0.0028,-0.0053,-0.0068,-0.0091,-0.0092,-0.0104,-0.0133,-0.0155,-0.0129,-0.0135,-0.0134,-0.0162,-0.0163,-0.0164,-0.0165,0,0,0.007,0.0074,0.0076,0.0089,0.0083,0.0086,0.0095,0.0098,0.0106,0.0079,0.0088,0.0051,0.0027,0.0009,-0.0027,-0.0043,-0.0036,-0.0075,-0.0078,-0.0071,-0.0063,-0.0061,-0.006,-0.0065,-0.0065,-0.0065,-0.0068,0,0.0096,0.0119,0.0112,0.014,0.0156,0.0143,0.0155,0.0151,0.0141,0.0141,0.0107,0.0095,0.0057,0.0044,0.0026,-0.0023,-0.0033,-0.0031,-0.0094,-0.0096,-0.0092,-0.0059,-0.0042,-0.0044,-0.0068,-0.0068,-0.0068,0,0.0118,0.0134,0.0168,0.0189,0.0194,0.0206,0.0223,0.0228,0.0221,0.0213,0.0197,0.0164,0.0143,0.0101,0.0049,0.0051,0.0007,-0.0032,-0.0034,-0.0053,-0.0092,-0.0077,-0.0042,-0.0067,-0.0067,-0.0067,-0.0067,0,0.0147,0.0173,0.0204,0.0211,0.023,0.0246,0.0254,0.0253,0.0264,0.0257,0.0262,0.0225,0.0211,0.0152,0.0079,0.0062,0.0022,-0.0017,-0.0053,-0.0054,-0.0062,-0.0063,-0.0049,-0.0049,-0.0049,-0.0049,-0.0049,0,0.0177,0.0203,0.0222,0.0242,0.0279,0.028,0.0312,0.0312,0.032,0.0343,0.0302,0.0311,0.0222,0.0184,0.0109,0.0044,0.0045,-0.0031,-0.0052,-0.0038,-0.0038,-0.0082,-0.0086,-0.005,-0.005,-0.005,-0.0049,0,0.0203,0.0215,0.0254,0.0285,0.0295,0.0321,0.0348,0.0369,0.0375,0.0404,0.0405,0.0379,0.0336,0.0251,0.0159,0.009,0.0016,-0.0011,0.0021,0.0005,-0.0054,-0.0054,-0.0047,-0.0047,-0.0047,-0.0047,-0.0047,0,0.022,0.0243,0.0284,0.0302,0.0319,0.0354,0.0376,0.0393,0.0419,0.0449,0.0471,0.0444,0.0434,0.0315,0.0193,0.008,0.0041,0.0008,-0.0025,-0.0031,-0.0052,-0.0053,-0.0053,-0.0008,-0.0008,-0.0007,-0.0007,0,0.0254,0.0266,0.0294,0.0331,0.0362,0.0398,0.0438,0.0469,0.0499,0.0534,0.0573,0.057,0.0476,0.037,0.0218,0.0135,0.0027,0.0011,-0.0003,-0.0011,0.0005,-0.0015,-0.0017,-0.0004,-0.0005,-0.0005,-0.0005,-0.0005,0.0277,0.0293,0.0322,0.0355,0.0392,0.044,0.0473,0.0522,0.0579,0.063,0.064,0.0638,0.0526,0.0337,0.0205,0.006,0.0063,-0.0008,-0.0009,-0.001,-0.0005,0.0011,0.0004,0.0004,0.0004,0.0004,0.0004,0,0.0295,0.0306,0.0339,0.038,0.0419,0.044,0.0508,0.0541,0.0613,0.0664,0.0698,0.0593,0.0494,0.0354,0.0154,0.0034,0.0015,-0.0019,-0.0018,-0.0019,-0.002,-0.0016,-0.001,-0.0011,-0.0011,-0.0012,0,0,0.0305,0.0325,0.0333,0.0391,0.0424,0.0477,0.0517,0.0573,0.0618,0.0659,0.0667,0.0679,0.0531,0.0374,0.0221,0.0102,0.0061,0.0074,0.0101,0.0122,0.0121,0.0008,0.0016,0,0,0,0,0]}],[{"header":{"parameterUnit":"m.s-1","parameterCategory":2,"la1":30.2991,"la2":30.254,"lo1":-89.0895,"lo2":-89.0444,"dy":0.0017,"dx":0.0017,"nx":28,"ny":28,"refTime":"2023-10-05T21:00:00:Z","depth":"4","parameterNumber":2,"parameterNumberName":"U-component_of_CURRENTS"},"data":[0,0,0,0,0,0,0,0,0,0,0,0,0,0,0,0,0,0,0,0,0,0,0,0,0,0,0,0,0,0,0,0,0,0,0,0,0,0,0,0,0,0,0,0,0,0,0,0,0,0,0,0,0,0,0,0,0,0,0.0887,0.0887,0,0.0933,0.0933,0.0934,0.0971,0.0971,0.0972,0.0972,0.0995,0.0995,0.0995,0,0,0,0,0,0,0,0,0,0,0,0,0,0.0858,0.0858,0.0887,0.0887,0.0888,0.0933,0.0933,0.0934,0.0971,0.0971,0.0972,0.0972,0.0995,0.0995,0.0995,0,0,0,0,0,0,0,0,0,0,0,0,0,0.0884,0.0858,0.0887,0.0912,0.0914,0.0933,0.0933,0.0934,0.0971,0.0971,0.0972,0.0972,0.0995,0.0995,0.0995,0.0986,0,0,0.0997,0.0997,0,0,0,0,0,0,0,0,0.0882,0.0885,0.0907,0.091,0.0913,0.0947,0.0932,0.095,0.0971,0.0949,0.0972,0.0973,0.0976,0.0978,0.0986,0.0987,0.0988,0.0997,0.0997,0.0997,0.0997,0,0,0,0,0,0,0,0.088,0.0883,0.0905,0.0908,0.0911,0.093,0.0934,0.0936,0.0958,0.0951,0.0954,0.0959,0.0978,0.0985,0.0986,0.0988,0.0997,0.0997,0.0997,0.0997,0.1062,0.1064,0,0,0,0,0,0,0.0873,0.0881,0.0903,0.0906,0.0899,0.093,0.0935,0.0935,0.0959,0.0963,0.0959,0.0961,0.0984,0.0986,0.0987,0.1043,0.0997,0.0997,0.0997,0.1061,0.1063,0.1064,0,0,0,0,0,0,0.0872,0.0874,0.0901,0.0895,0.09,0.093,0.093,0.0936,0.0967,0.0965,0.0969,0.0986,0.0985,0.0987,0.1017,0.1041,0.0997,0.0998,0.1059,0.1062,0.1064,0.1112,0,0,0,0,0,0,0.0871,0.0873,0.0885,0.0894,0.09,0.093,0.093,0.0936,0.0967,0.0971,0.0989,0.0991,0.0985,0.1017,0.1018,0.1041,0.0998,0.1057,0.106,0.1063,0.1108,0.1115,0.1122,0,0,0,0,0,0.0869,0.0882,0.0885,0.0889,0.0911,0.093,0.0936,0.0958,0.0968,0.0987,0.1005,0.0991,0.1036,0.1019,0.1019,0.1043,0.1056,0.1059,0.1063,0.1105,0.1114,0.1121,0,0,0,0,0,0,0.088,0.0887,0.0891,0.0906,0.0925,0.0937,0.0962,0.0971,0.1,0.1011,0.1008,0.1011,0.1048,0.1041,0.1022,0.1072,0.1044,0.1048,0.1077,0.1085,0.1091,0.1087,0.0998,0,0,0,0,0,0.0885,0.0896,0.0905,0.0922,0.0933,0.095,0.0967,0.098,0.0999,0.1014,0.1026,0.1042,0.1058,0.1069,0.108,0.1104,0.1099,0.1121,0.1128,0.1134,0.1132,0.115,0.1158,0.1076,0.1076,0.1076,0,0,0.0894,0.09,0.0908,0.0925,0.0943,0.0962,0.0963,0.0994,0.1015,0.1009,0.1053,0.1066,0.1071,0.1103,0.1118,0.1103,0.1158,0.1138,0.1143,0.1138,0.1154,0.1162,0.1169,0.1078,0.1077,0.1077,0,0,0.0911,0.0924,0.0939,0.0954,0.0981,0.099,0.1002,0.1027,0.1049,0.1083,0.1091,0.112,0.1142,0.1154,0.116,0.1209,0.1193,0.1217,0.1245,0.1262,0.1269,0.1274,0.1289,0.1295,0.1219,0.1219,0.1219,0,0.0927,0.0939,0.0949,0.0968,0.0986,0.1003,0.1025,0.1047,0.1081,0.1102,0.1105,0.1158,0.1163,0.12,0.1221,0.1222,0.123,0.1212,0.127,0.1275,0.128,0.1293,0.1299,0.1222,0.1221,0.1221,0.1221,0,0.0945,0.0966,0.0981,0.1004,0.1025,0.1051,0.1073,0.1105,0.113,0.1147,0.1199,0.1214,0.1245,0.1255,0.1252,0.1296,0.129,0.1276,0.1246,0.1291,0.1302,0.1308,0.1226,0.1225,0.1224,0.1223,0,0,0.0949,0.0986,0.0994,0.1011,0.1048,0.1063,0.1106,0.1144,0.1175,0.1212,0.1253,0.1289,0.1305,0.1313,0.1322,0.1335,0.138,0.1325,0.1325,0.1332,0.1423,0.134,0.1338,0.1379,0.138,0.1381,0.142,0,0.0966,0.1,0.1016,0.1057,0.1077,0.1107,0.1142,0.1179,0.1214,0.1258,0.1287,0.1327,0.1325,0.1349,0.1367,0.1379,0.1396,0.137,0.1384,0.1384,0.1298,0.1342,0.1385,0.1424,0.1426,0.1427,0.1427,0,0.0974,0.0998,0.1038,0.1081,0.1094,0.1122,0.1181,0.1214,0.1273,0.1303,0.135,0.1372,0.1419,0.1401,0.1447,0.1434,0.1435,0.1434,0.1435,0.1341,0.1311,0.1368,0.1437,0.1437,0.1436,0.1435,0.1435,0,0.0962,0.1011,0.1044,0.106,0.1112,0.1144,0.1177,0.1234,0.1268,0.1338,0.137,0.1424,0.1459,0.1474,0.1487,0.1475,0.1521,0.15,0.1425,0.1419,0.146,0.1453,0.1522,0.1522,0.1522,0.1521,0.1521,0,0.096,0.0989,0.1045,0.1063,0.111,0.1146,0.12,0.1243,0.1302,0.1338,0.1397,0.1428,0.1479,0.151,0.1509,0.1489,0.1543,0.1434,0.1424,0.1481,0.1477,0.1464,0.1457,0.1523,0.1523,0.1522,0.1522,0,0.0939,0.0976,0.102,0.1084,0.1106,0.1142,0.121,0.1239,0.1305,0.1355,0.1381,0.145,0.1489,0.1525,0.1552,0.1508,0.1499,0.1475,0.1546,0.1538,0.1381,0.1377,0.1394,0.1391,0.1389,0.1387,0.1386,0,0.0927,0.0949,0.103,0.1057,0.1092,0.1146,0.1175,0.124,0.1263,0.1352,0.1363,0.1434,0.147,0.1444,0.1489,0.149,0.1466,0.1453,0.1402,0.138,0.1369,0.1368,0.1366,0.1382,0.1382,0.1381,0.138,0,0.0913,0.0954,0.0994,0.1042,0.1084,0.1117,0.1161,0.117,0.1234,0.1306,0.1309,0.1325,0.1366,0.1384,0.14,0.1394,0.1457,0.1429,0.1433,0.1385,0.1366,0.1357,0.1358,0.1373,0.1374,0.1375,0.1375,0,0.0913,0.0934,0.0985,0.1016,0.1063,0.1065,0.1097,0.1107,0.1133,0.1214,0.1213,0.1283,0.1347,0.1335,0.1349,0.1343,0.1315,0.1258,0.1271,0.128,0.1224,0.1182,0.1126,0,0,0,0,0,0.0903,0.0911,0.0944,0.0969,0.1006,0.1025,0.1071,0.1097,0.1156,0.1125,0.116,0.1186,0.1201,0.1237,0.1208,0.1313,0.1333,0.1274,0.1278,0.133,0.1339,0.1284,0,0,0,0,0,0,0.0898,0.0935,0.0929,0.0915,0.0915,0.0939,0.0965,0.1007,0.0985,0.1053,0.1065,0.1116,0.1151,0.1206,0.1186,0.1199,0.1176,0.1318,0.1314,0.1325,0.1333,0.134,0.1287,0,0,0,0,0]},{"header":{"parameterUnit":"m.s-1","parameterCategory":2,"la1":30.2991,"la2":30.254,"lo1":-89.0895,"lo2":-89.0444,"dy":0.0017,"dx":0.0017,"nx":28,"ny":28,"refTime":"2023-10-05T21:00:00:Z","depth":"4","parameterNumber":3,"parameterNumberName":"V-component_of_CURRENTS"},"data":[0,0,0,0,0,0,0,0,0,0,0,0,0,0,0,0,0,0,0,0,0,0,0,0,0,0,0,0,0,0,0,0,0,0,0,0,0,0,0,0,0,0,0,0,0,0,0,0,0,0,0,0,0,0,0,0,0,0,0.0126,0.0126,0,0.0092,0.0091,0.0091,0.007,0.007,0.007,0.007,0.0037,0.0036,0.0035,0,0,0,0,0,0,0,0,0,0,0,0,0,0.0149,0.0149,0.0126,0.0126,0.0125,0.0092,0.0091,0.0091,0.007,0.007,0.007,0.007,0.0037,0.0036,0.0035,0,0,0,0,0,0,0,0,0,0,0,0,0,0.0129,0.0149,0.0126,0.0111,0.0109,0.0092,0.0091,0.0091,0.007,0.007,0.007,0.007,0.0037,0.0036,0.0035,0.003,0,0,0.0031,0.0031,0,0,0,0,0,0,0,0,0.0131,0.0129,0.0114,0.0112,0.011,0.0085,0.0087,0.0071,0.007,0.0085,0.007,0.007,0.0053,0.005,0.0044,0.0029,0.0027,0.0031,0.003,0.003,0.0029,0,0,0,0,0,0,0,0.0132,0.013,0.0113,0.0113,0.0111,0.0097,0.0095,0.0084,0.007,0.0084,0.0082,0.0078,0.0052,0.0046,0.0043,0.0027,0.0031,0.003,0.0029,0.0029,0.0009,0.0009,0,0,0,0,0,0,0.0138,0.0131,0.0114,0.0112,0.012,0.0097,0.0094,0.0093,0.007,0.0067,0.0079,0.0078,0.0048,0.0045,0.0042,0.0038,0.003,0.0029,0.0028,0.0009,0.0009,0.0009,0,0,0,0,0,0,0.0138,0.0137,0.0115,0.012,0.0117,0.0097,0.0096,0.0093,0.0086,0.0066,0.0063,0.0075,0.0047,0.0044,0.0036,0.0037,0.0028,0.0027,0.0009,0.0009,0.0009,0.0029,0,0,0,0,0,0,0.0139,0.0137,0.0138,0.0121,0.0117,0.0106,0.0096,0.0092,0.0084,0.0082,0.0062,0.0059,0.0047,0.0038,0.0034,0.0035,0.0026,0.0008,0.0009,0.0009,0.0028,0.003,0.0032,0,0,0,0,0,0.014,0.014,0.0138,0.0136,0.0119,0.0106,0.0103,0.0088,0.0084,0.0081,0.0071,0.006,0.0038,0.0037,0.0033,0.0033,0.0008,0.0009,0.0009,0.0027,0.003,0.0032,0,0,0,0,0,0,0.0148,0.0137,0.0135,0.0131,0.0122,0.0103,0.0097,0.009,0.0079,0.0078,0.0062,0.0058,0.005,0.0041,0.004,0.0029,0.0021,0.0021,0.0037,0.0038,0.004,0.0047,0.0025,0,0,0,0,0,0.0152,0.015,0.0138,0.0135,0.0131,0.0116,0.0109,0.0101,0.0089,0.0083,0.0071,0.0059,0.0049,0.0043,0.0033,0.0027,0.0016,0.0025,0.0027,0.0028,0.0031,0.0018,0.0019,0.0011,0.0011,0.0011,0,0,0.0154,0.0148,0.0146,0.0137,0.0128,0.0124,0.0111,0.0102,0.0101,0.0082,0.0076,0.0064,0.0049,0.0043,0.0039,0.0035,0.0024,0.0029,0.003,0.0033,0.0019,0.002,0.002,0.0011,0.0011,0.0011,0,0,0.0155,0.0153,0.015,0.0145,0.0135,0.0128,0.0128,0.0113,0.0107,0.0101,0.0088,0.0079,0.0063,0.0054,0.0047,0.0052,0.0034,0.0047,0.006,0.0048,0.0048,0.0049,0.0033,0.0031,0.0048,0.0048,0.0048,0,0.0157,0.0156,0.0147,0.0145,0.0144,0.0133,0.0134,0.0126,0.0111,0.011,0.0102,0.0082,0.0069,0.0063,0.0064,0.0056,0.0044,0.0054,0.005,0.005,0.005,0.0033,0.0032,0.0049,0.0049,0.0049,0.0049,0,0.0155,0.0157,0.0155,0.0153,0.0151,0.015,0.0143,0.0141,0.0136,0.0128,0.0121,0.0103,0.0092,0.0085,0.0075,0.007,0.0059,0.0053,0.0045,0.0052,0.0034,0.0032,0.0051,0.005,0.005,0.005,0,0,0.0157,0.0155,0.0156,0.0162,0.0158,0.0159,0.016,0.016,0.0165,0.0148,0.0151,0.013,0.012,0.0113,0.0097,0.0085,0.0073,0.0071,0.007,0.0056,0.0041,0.0044,0.0042,0.0065,0.0065,0.0065,0.0027,0,0.016,0.0163,0.0162,0.0172,0.0177,0.0176,0.0181,0.018,0.0177,0.0177,0.0158,0.0154,0.0131,0.0128,0.0112,0.0086,0.0069,0.0083,0.0036,0.0034,0.0037,0.004,0.0064,0.0026,0.0025,0.0025,0.0024,0,0.016,0.0166,0.0176,0.0192,0.0194,0.02,0.0216,0.0219,0.0216,0.0213,0.0202,0.0187,0.0169,0.015,0.0103,0.0112,0.0079,0.0054,0.0052,0.0048,0.0034,0.0017,0.0021,0.0021,0.0021,0.0021,0.0022,0,0.0171,0.0179,0.0193,0.0196,0.0208,0.0218,0.0226,0.023,0.0242,0.0238,0.0245,0.0214,0.0209,0.0161,0.011,0.0105,0.0058,0.0045,0.0013,0.0012,0.0011,0.0011,0.001,0.001,0.001,0.001,0.001,0,0.0178,0.019,0.02,0.0209,0.0233,0.0235,0.026,0.0263,0.0273,0.0292,0.0267,0.0273,0.0212,0.0178,0.0121,0.0064,0.0063,0.0017,0.0005,0.002,0.0021,0.0009,0.001,0.0008,0.0009,0.0009,0.0009,0,0.0187,0.0192,0.0211,0.0229,0.0239,0.0257,0.0287,0.0303,0.0311,0.0334,0.0337,0.0318,0.0278,0.0211,0.0139,0.0087,0.0026,0.0004,0.0027,0.0016,-0.0016,-0.0014,-0.0037,-0.0037,-0.0037,-0.0037,-0.0037,0,0.0191,0.0201,0.0229,0.0244,0.0254,0.0282,0.0303,0.0321,0.034,0.0363,0.0376,0.0352,0.0329,0.023,0.0157,0.0048,0.0031,-0.0009,-0.0016,-0.001,-0.002,-0.0018,-0.0015,-0.0037,-0.0037,-0.0037,-0.0037,0,0.0201,0.0211,0.0228,0.0257,0.0282,0.0315,0.0345,0.0365,0.0389,0.04,0.0408,0.0364,0.0322,0.024,0.016,0.008,0.0012,-0.0011,-0.0012,-0.0018,-0.0012,-0.002,-0.0018,-0.0038,-0.0038,-0.0038,-0.0038,0,0.021,0.022,0.0238,0.0264,0.03,0.0332,0.0352,0.0377,0.04,0.0424,0.0427,0.0384,0.0361,0.0258,0.0183,0.0108,0.0082,0.0043,0.0039,0.0038,0.0071,0.0091,0.0089,0,0,0,0,0,0.0211,0.0216,0.0241,0.0268,0.0305,0.0323,0.0372,0.039,0.042,0.0428,0.0427,0.0389,0.0296,0.0262,0.0187,0.017,0.0062,0.0077,0.0012,-0.004,-0.004,-0.0014,0,0,0,0,0,0,0.0209,0.0227,0.0234,0.0267,0.0283,0.0324,0.0356,0.038,0.0386,0.0407,0.0364,0.0352,0.0265,0.0333,0.0178,0.0158,0.0102,0.004,0.0037,-0.004,-0.004,-0.004,-0.0013,0,0,0,0,0]}]]